Location: Brachbach
(49.1847°N, 9.7240°E)
Time: 00:15:43
(UTC+00:00)

Tiangong - Visible Passes

Search period start: 22 January 2026 00:00
Search period end: 01 February 2026 00:00
Orbit: 378 x 392 km, 41.5° (Epoch: 21 January)

Date Brightness Start Highest point End Pass type
(mag) Time Alt. Az. Time Alt. Az. Time Alt. Az.
22 Jan 0.6 04:31:09 14° SSE 04:31:09 14° SSE 04:32:27 10° SE visible
22 Jan 0.1 06:04:15 10° SW 06:06:42 20° S 06:09:10 10° SE visible
23 Jan -0.1 05:06:42 19° SSW 05:07:20 20° S 05:09:46 10° SE visible
24 Jan 1.1 04:09:55 11° SE 04:09:55 11° SE 04:10:11 10° SE visible
24 Jan 0.0 05:42:08 12° SW 05:44:08 19° S 05:46:30 10° SE visible
25 Jan 0.1 04:45:16 19° SSE 04:45:16 19° SSE 04:47:06 10° SE visible
25 Jan 0.5 06:19:18 10° SW 06:20:49 13° SSW 06:22:22 10° S visible
26 Jan 0.0 05:20:33 15° SSW 05:21:19 16° SSW 05:23:23 10° SSE visible
27 Jan 0.8 04:23:34 12° SSE 04:23:34 12° SSE 04:24:02 10° SE visible
28 Jan 0.5 04:58:46 12° S 04:58:46 12° S 04:59:40 10° S visible
